When you browse on this site, cookies collect data to enhance your experience and personalize the content and advertising you see.
Visit our Privacy Policy to learn more. By continuing to use the site, you agree to this use of cookies and data.
  • In Netherlands
  • List of Countries
  • For 7 days
  • Water Temperature
  • Weather Map
  • Weather Widgets
  • user-avatar
    Login

    Hourly Weather Asadabad

    Today, 19 September, Thursday

    Time Temperature Precipitation Wind Pressure Humidity
    00:00 +23°C° 0 mm 1 mps 659 mmHg 50%
    01:00 +21°C° 0 mm 0 mps 658 mmHg 50%
    02:00 +20°C° 0 mm 0 mps 658 mmHg 50%
    03:00 +20°C° 0 mm 0 mps 658 mmHg 49%
    04:00 +22°C° 0 mm 1 mps 658 mmHg 48%
    05:00 +22°C° 0 mm 1 mps 659 mmHg 50%
    06:00 +23°C° 0 mm 1 mps 659 mmHg 46%
    07:00 +25°C° 0 mm 1 mps 660 mmHg 43%
    08:00 +26°C° 0 mm 1 mps 661 mmHg 40%
    09:00 +27°C° 0 mm 1 mps 661 mmHg 41%
    10:00 +28°C° 0 mm 2 mps 661 mmHg 42%
    11:00 +29°C° 0 mm 3 mps 661 mmHg 42%
    12:00 +30°C° 0 mm 3 mps 661 mmHg 41%
    13:00 +30°C° 0 mm 3 mps 661 mmHg 41%
    14:00 +30°C° 0 mm 3 mps 660 mmHg 40%
    15:00 +30°C° 0 mm 3 mps 660 mmHg 41%
    16:00 +30°C° 0 mm 3 mps 660 mmHg 43%
    17:00 +30°C° 0 mm 3 mps 660 mmHg 44%
    18:00 +28°C° 0 mm 2 mps 660 mmHg 51%
    19:00 +27°C° 0 mm 1 mps 660 mmHg 59%
    20:00 +25°C° 0 mm 1 mps 660 mmHg 66%
    21:00 +23°C° 0 mm 0 mps 659 mmHg 67%
    22:00 +22°C° 0 mm 0 mps 659 mmHg 69%
    23:00 +22°C° 0 mm 0 mps 659 mmHg 70%

    Tomorrow, 20 September, Friday

    Time Temperature Precipitation Wind Pressure Humidity
    00:00 +22°C° 0 mm 0 mps 659 mmHg 69%
    01:00 +21°C° 0 mm 0 mps 659 mmHg 69%
    02:00 +21°C° 0 mm 0 mps 658 mmHg 68%
    03:00 +23°C° 0 mm 1 mps 659 mmHg 66%
    04:00 +22°C° 0 mm 1 mps 659 mmHg 63%
    05:00 +22°C° 0 mm 1 mps 659 mmHg 61%
    06:00 +23°C° 0 mm 1 mps 659 mmHg 56%
    07:00 +23°C° 0 mm 0 mps 659 mmHg 51%
    08:00 +24°C° 0 mm 0 mps 660 mmHg 46%
    09:00 +27°C° 0 mm 1 mps 660 mmHg 46%
    10:00 +28°C° 0 mm 1 mps 660 mmHg 46%
    11:00 +29°C° 0 mm 2 mps 660 mmHg 46%
    12:00 +29°C° 0 mm 2 mps 660 mmHg 44%
    13:00 +30°C° 0 mm 2 mps 659 mmHg 41%
    14:00 +31°C° 0 mm 3 mps 659 mmHg 38%
    15:00 +31°C° 0 mm 3 mps 659 mmHg 38%
    16:00 +30°C° 0 mm 3 mps 659 mmHg 38%
    17:00 +30°C° 0 mm 2 mps 659 mmHg 38%
    18:00 +29°C° 0 mm 2 mps 658 mmHg 46%
    19:00 +27°C° 0 mm 1 mps 658 mmHg 55%
    20:00 +25°C° 0 mm 1 mps 658 mmHg 63%
    21:00 +25°C° 0 mm 1 mps 658 mmHg 65%
    22:00 +22°C° 0 mm 0 mps 658 mmHg 67%
    23:00 +22°C° 0 mm 0 mps 658 mmHg 70%

    Day after tomorrow, 21 September, Saturday

    Time Temperature Precipitation Wind Pressure Humidity
    00:00 +21°C° 0 mm 0 mps 658 mmHg 69%
    01:00 +21°C° 0 mm 0 mps 658 mmHg 68%
    02:00 +23°C° 0 mm 1 mps 658 mmHg 66%
    03:00 +22°C° 0 mm 1 mps 658 mmHg 66%
    04:00 +20°C° 0 mm 0 mps 658 mmHg 66%
    05:00 +20°C° 0 mm 0 mps 657 mmHg 66%
    06:00 +21°C° 0 mm 0 mps 658 mmHg 61%
    07:00 +22°C° 0 mm 0 mps 658 mmHg 56%
    08:00 +24°C° 0 mm 0 mps 659 mmHg 51%
    09:00 +27°C° 0 mm 1 mps 659 mmHg 49%
    10:00 +28°C° 0 mm 1 mps 659 mmHg 48%
    11:00 +29°C° 0 mm 2 mps 659 mmHg 46%
    12:00 +30°C° 0 mm 2 mps 659 mmHg 43%
    13:00 +30°C° 0 mm 2 mps 659 mmHg 40%
    14:00 +31°C° 0 mm 2 mps 658 mmHg 36%
    15:00 +31°C° 0 mm 2 mps 658 mmHg 37%
    16:00 +31°C° 0 mm 2 mps 658 mmHg 37%
    17:00 +31°C° 0 mm 2 mps 658 mmHg 38%
    18:00 +29°C° 0 mm 2 mps 658 mmHg 45%
    19:00 +27°C° 0 mm 1 mps 658 mmHg 53%
    20:00 +24°C° 0 mm 0 mps 657 mmHg 61%
    21:00 +23°C° 0 mm 0 mps 657 mmHg 63%
    22:00 +23°C° 0 mm 0 mps 657 mmHg 64%
    23:00 +22°C° 0 mm 0 mps 657 mmHg 66%

    22 September, Sunday

    Time Temperature Precipitation Wind Pressure Humidity
    00:00 +22°C° 0 mm 0 mps 657 mmHg 66%
    01:00 +21°C° 0 mm 0 mps 657 mmHg 66%
    02:00 +23°C° 0 mm 1 mps 657 mmHg 66%
    03:00 +23°C° 0 mm 1 mps 657 mmHg 66%
    04:00 +22°C° 0 mm 1 mps 657 mmHg 65%
    05:00 +22°C° 0 mm 1 mps 657 mmHg 65%
    06:00 +23°C° 0 mm 1 mps 658 mmHg 61%
    07:00 +25°C° 0 mm 1 mps 659 mmHg 56%
    08:00 +24°C° 0 mm 0 mps 659 mmHg 51%
    09:00 +27°C° 0 mm 1 mps 659 mmHg 48%
    10:00 +29°C° 0 mm 1 mps 660 mmHg 45%
    11:00 +30°C° 0 mm 2 mps 660 mmHg 43%
    12:00 +30°C° 0 mm 2 mps 660 mmHg 40%
    13:00 +31°C° 0 mm 2 mps 659 mmHg 38%
    14:00 +32°C° 0 mm 2 mps 659 mmHg 35%
    15:00 +32°C° 0 mm 2 mps 659 mmHg 36%
    16:00 +32°C° 0 mm 2 mps 659 mmHg 37%
    17:00 +31°C° 0 mm 2 mps 659 mmHg 38%
    18:00 +30°C° 0 mm 2 mps 659 mmHg 45%
    19:00 +28°C° 0 mm 1 mps 659 mmHg 53%
    20:00 +24°C° 0 mm 0 mps 659 mmHg 61%
    21:00 +24°C° 0 mm 0 mps 659 mmHg 62%
    22:00 +23°C° 0 mm 0 mps 659 mmHg 63%
    23:00 +23°C° 0 mm 0 mps 659 mmHg 65%

    23 September, Monday

    Time Temperature Precipitation Wind Pressure Humidity
    00:00 +23°C° 0 mm 0 mps 659 mmHg 63%
    01:00 +22°C° 0 mm 0 mps 659 mmHg 62%
    02:00 +22°C° 0 mm 0 mps 659 mmHg 61%
    03:00 +23°C° 0 mm 1 mps 659 mmHg 60%
    04:00 +23°C° 0 mm 1 mps 659 mmHg 60%
    05:00 +23°C° 0 mm 1 mps 659 mmHg 59%
    06:00 +24°C° 0 mm 1 mps 659 mmHg 54%
    07:00 +24°C° 0 mm 0 mps 660 mmHg 50%
    08:00 +25°C° 0 mm 0 mps 661 mmHg 46%
    09:00 +28°C° 0 mm 1 mps 661 mmHg 46%
    10:00 +29°C° 0 mm 1 mps 661 mmHg 45%
    11:00 +30°C° 0 mm 2 mps 661 mmHg 44%
    12:00 +31°C° 0 mm 2 mps 661 mmHg 42%
    13:00 +32°C° 0 mm 2 mps 660 mmHg 40%
    14:00 +32°C° 0 mm 2 mps 660 mmHg 37%
    15:00 +32°C° 0 mm 2 mps 660 mmHg 39%
    16:00 +32°C° 0 mm 2 mps 659 mmHg 40%
    17:00 +32°C° 0 mm 2 mps 659 mmHg 41%
    18:00 +30°C° 0 mm 2 mps 659 mmHg 49%
    19:00 +28°C° 0 mm 1 mps 659 mmHg 56%
    20:00 +25°C° 0 mm 0 mps 659 mmHg 64%
    21:00 +24°C° 0 mm 0 mps 659 mmHg 66%
    22:00 +24°C° 0 mm 0 mps 659 mmHg 67%
    23:00 +23°C° 0 mm 0 mps 659 mmHg 69%

    24 September, Tuesday

    Time Temperature Precipitation Wind Pressure Humidity
    00:00 +23°C° 0 mm 0 mps 659 mmHg 69%
    01:00 +23°C° 0 mm 0 mps 659 mmHg 69%
    02:00 +24°C° 0 mm 1 mps 659 mmHg 68%
    03:00 +24°C° 0 mm 1 mps 659 mmHg 68%
    04:00 +24°C° 0 mm 1 mps 659 mmHg 67%
    05:00 +23°C° 0 mm 1 mps 659 mmHg 67%
    06:00 +23°C° 0 mm 0 mps 659 mmHg 62%
    07:00 +24°C° 0 mm 0 mps 660 mmHg 58%
    08:00 +25°C° 0 mm 0 mps 661 mmHg 54%
    09:00 +28°C° 0 mm 1 mps 661 mmHg 51%
    10:00 +29°C° 0 mm 1 mps 661 mmHg 49%
    11:00 +30°C° 0 mm 2 mps 661 mmHg 46%
    12:00 +31°C° 0 mm 2 mps 661 mmHg 44%
    13:00 +32°C° 0 mm 2 mps 661 mmHg 42%
    14:00 +33°C° 0 mm 3 mps 660 mmHg 39%
    15:00 +32°C° 0 mm 2 mps 660 mmHg 40%
    16:00 +32°C° 0 mm 2 mps 660 mmHg 41%
    17:00 +32°C° 0 mm 2 mps 660 mmHg 42%
    18:00 +30°C° 0 mm 2 mps 660 mmHg 49%
    19:00 +29°C° 0 mm 1 mps 660 mmHg 56%
    20:00 +25°C° 0 mm 0 mps 660 mmHg 63%
    21:00 +25°C° 0 mm 0 mps 660 mmHg 65%
    22:00 +24°C° 0 mm 0 mps 660 mmHg 66%
    23:00 +24°C° 0 mm 0 mps 660 mmHg 68%
    Show more